Weather History for Indianapolis, IN

Change the Weather History Date:

Tuesday, March 18, 2014

  Actual Average Record
Temperature  
Mean Temperature 40 °F 43 °F  
Max Temperature 53 °F 53 °F 80 °F (2012)
Min Temperature 27 °F 34 °F 7 °F (1941)
Degree Days  
Heating Degree Days 25 22  
Month to date heating degree days 567 453  
Since 1 July heating degree days 5364 4596  
Cooling Degree Days 0 0  
Month to date cooling degree days 0 0  
Year to date cooling degree days 0 0  
Moisture  
Dew Point 31 °F    
Average Humidity 69    
Maximum Humidity 83    
Minimum Humidity 54    
Precipitation  
Precipitation 0.00 in 0.13 in 2.03 in (1933)
Month to date precipitation 1.58 1.93  
Year to date precipitation 6.37 6.91  
Snow  
Snow 0.00 in 0.00 in 3.60 in (1934)
Month to date snowfall 2.8 1.9  
Since 1 July snowfall 55.1 25.0  
Snow Depth 0.00 in    
Sea Level Pressure  
Sea Level Pressure 29.88 in    
Wind  
Wind Speed 12 mph (SE)    
Max Wind Speed 25 mph    
Max Gust Speed 29 mph    
Visibility 10 miles    
Events      
T = Trace of Precipitation, MM = Missing Value Source: NWS Daily Summary

Daily Weather History Graph

Daily Weather History Graph

Search for Another Location

Airport:

Trip Planner

Search our weather history database for the weather conditions in past years. The results will help you decide how hot, cold, wet, or windy it might be!

Date:

Astronomy

Mar. 18, 2014 Rise Set
Actual Time 7:51 AM EDT 7:55 PM EDT
Civil Twilight 7:24 AM EDT 8:22 PM EDT
Nautical Twilight 6:53 AM EDT 8:53 PM EDT
Astronomical Twilight 6:21 AM EDT 9:25 PM EDT
Moon 10:11 PM EDT (3/18) 8:41 AM EDT (3/18)
Length of Visible Light 12h 57m
Length of Day
12h 03m
Waning Gibbous, 96% of the Moon is Illuminated
Mar 18
Waning Gibbous
Mar 23
Last Quarter
Mar 30
New
Apr 7
First Quarter
Apr 15
Full

Hourly Weather History & Observations

Time (EDT) Temp. Windchill Dew Point Humidity Pressure Visibility Wind Dir Wind Speed Gust Speed Precip Events Conditions
12:54 AM 30.0 °F 23.2 °F 23.0 °F 75% 29.90 in 10.0 mi SE 6.9 mph - N/A   Partly Cloudy
1:54 AM 30.0 °F 24.1 °F 24.1 °F 79% 29.89 in 10.0 mi SE 5.8 mph - N/A   Clear
2:54 AM 30.0 °F 21.7 °F 23.0 °F 75% 29.89 in 10.0 mi SSE 9.2 mph - N/A   Clear
3:54 AM 30.0 °F 22.4 °F 21.9 °F 72% 29.89 in 10.0 mi SE 8.1 mph - N/A   Clear
4:54 AM 28.9 °F 21.1 °F 21.9 °F 75% 29.90 in 10.0 mi SE 8.1 mph - N/A   Clear
5:54 AM 28.0 °F 24.2 °F 21.9 °F 78% 29.92 in 10.0 mi East 3.5 mph - N/A   Clear
6:54 AM 27.0 °F 20.5 °F 21.0 °F 78% 29.91 in 10.0 mi East 5.8 mph - N/A   Clear
7:54 AM 27.0 °F 21.6 °F 21.9 °F 81% 29.92 in 9.0 mi East 4.6 mph - N/A   Scattered Clouds
8:54 AM 30.0 °F 23.2 °F 24.1 °F 79% 29.92 in 8.0 mi ESE 6.9 mph - N/A   Partly Cloudy
9:54 AM 35.1 °F 27.9 °F 27.0 °F 72% 29.93 in 10.0 mi SE 9.2 mph - N/A   Scattered Clouds
10:49 AM 39.2 °F 30.8 °F 30.2 °F 70% 29.93 in 10.0 mi SSE 15.0 mph - N/A   Mostly Cloudy
10:54 AM 37.9 °F 29.6 °F 30.0 °F 73% 29.95 in 10.0 mi SE 13.8 mph - N/A   Overcast
11:38 AM 41.0 °F 33.5 °F 30.9 °F 67% 29.93 in 10.0 mi SE 13.8 mph - N/A   Mostly Cloudy
11:54 AM 41.0 °F 33.1 °F 30.9 °F 67% 29.95 in 10.0 mi SE 15.0 mph - N/A   Mostly Cloudy
12:54 PM 44.1 °F 37.4 °F 33.1 °F 65% 29.96 in 10.0 mi SE 13.8 mph - N/A   Mostly Cloudy
1:54 PM 44.1 °F 36.8 °F 33.1 °F 65% 29.96 in 10.0 mi SE 16.1 mph 23.0 mph N/A   Scattered Clouds
2:54 PM 48.9 °F - 34.0 °F 56% 29.91 in 10.0 mi SSE 17.3 mph 24.2 mph N/A   Scattered Clouds
3:54 PM 50.0 °F - 35.1 °F 57% 29.89 in 10.0 mi SE 13.8 mph 23.0 mph N/A   Scattered Clouds
4:54 PM 52.0 °F - 36.0 °F 54% 29.86 in 10.0 mi SSE 19.6 mph 27.6 mph N/A   Scattered Clouds
5:54 PM 52.0 °F - 36.0 °F 54% 29.82 in 10.0 mi SE 19.6 mph 25.3 mph N/A   Partly Cloudy
6:54 PM 51.1 °F - 36.0 °F 56% 29.81 in 10.0 mi SE 16.1 mph - N/A   Partly Cloudy
7:54 PM 46.0 °F 39.0 °F 37.0 °F 71% 29.82 in 10.0 mi SSE 17.3 mph 25.3 mph N/A   Partly Cloudy
8:19 PM 46.0 °F 39.3 °F 37.0 °F 71% 29.78 in 10.0 mi SE 16.1 mph 24.2 mph N/A   Mostly Cloudy
8:54 PM 46.0 °F 39.3 °F 37.9 °F 73% 29.78 in 10.0 mi SSE 16.1 mph - N/A   Overcast
9:54 PM 46.0 °F 39.3 °F 37.9 °F 73% 29.77 in 10.0 mi SSE 16.1 mph - N/A   Overcast
10:28 PM 45.0 °F 38.5 °F 39.0 °F 80% 29.75 in 10.0 mi SSE 13.8 mph - N/A   Scattered Clouds
10:54 PM 45.0 °F 38.9 °F 39.0 °F 80% 29.77 in 10.0 mi SE 12.7 mph - N/A   Scattered Clouds
11:12 PM 46.0 °F 40.2 °F 39.0 °F 76% 29.79 in 10.0 mi South 12.7 mph - N/A   Mostly Cloudy
11:54 PM 46.0 °F 41.9 °F 39.9 °F 79% 29.81 in 10.0 mi South 8.1 mph - N/A   Overcast